Regional Weather Roundup
Issued by NWS Green Bay, WI

Home | Current Version | Previous Version | Graphics & Text | Print | Product List | Glossary Off
Versions: 1 2 3 4 5 6 7 8 9 10 11 12 13 14 15 16 17 18 19 20 21 22 23 24 25 26 27 28 29 30 31 32 33 34 35 36 37 38 39 40 41 42 43 44 45 46 47 48 49 50

000
ASUS43 KGRB 190759
RWRGRB

NORTH-CENTRAL AND NORTHEAST WISCONSIN REGIONAL WEATHER ROUNDUP
NATIONAL WEATHER SERVICE GREEN BAY WI
300 AM CDT FRI SEP 19 2014

WIZ005-009-010>012-018-019-190900-
NORTH CENTRAL WISCONSIN

CITY           SKY/WX    TMP DP  RH WIND       PRES   REMARKS
IRONWOOD       CLEAR     52  50  93 S9G18     30.00F
MANITOWISH WTR NOT AVBL
ARBOR VITAE    NOT AVBL
EAGLE RIVER    NOT AVBL
LAND O LAKES   NOT AVBL
RHINELANDER    CLOUDY    49  48  97 S7        30.10F FOG
PHILLIPS       NOT AVBL
ANTIGO         NOT AVBL
TOMAHAWK       NOT AVBL
MERRILL        NOT AVBL
$$

WIZ013-073-190900-
NORTHEAST WISCONSIN

CITY           SKY/WX    TMP DP  RH WIND       PRES   REMARKS
IRON MOUNTAIN  CLOUDY    47  45  93 SE5       30.12S
MARINETTE      PTCLDY    48  45  87 SW3       30.13S
$$

WIZ017-030-035>037-045-190900-
CENTRAL WISCONSIN

CITY           SKY/WX    TMP DP  RH WIND       PRES   REMARKS
MEDFORD        NOT AVBL
WAUSAU         CLOUDY    51  50  96 SE7       30.11S FOG
MOSINEE        NOT AVBL
MARSHFIELD     FOG       51  50  96 S8        30.10F VSB 1/2
WISC RAPIDS    CLOUDY    51  50  96 S5        30.13S FOG
STEVENS POINT  NOT AVBL
WAUPACA        NOT AVBL
SHAWANO        NOT AVBL
CLINTONVILLE   NOT AVBL
$$

WIZ038-039-048-051-190900-
FOX VALLEY

CITY           SKY/WX    TMP DP  RH WIND       PRES   REMARKS
NWS GREEN BAY  CLEAR     43  42  97 CALM      30.14F
APPLETON       NOT AVBL
OSHKOSH        CLEAR     48  47  96 S8        30.13F
FOND DU LAC    CLOUDY    51  50  96 S14       30.14F FOG
$$

WIZ022-050-052-190900-
EAST CENTRAL WISCONSIN

CITY           SKY/WX    TMP DP  RH WIND       PRES   REMARKS
STURGEON BAY   CLEAR     50  46  87 SE6       30.15S
MANITOWOC      NOT AVBL
SHEBOYGAN      PTCLDY    42  41  96 SW3       30.15F
$$

LMZ563-521-522-541>543-190900-
LAKESHORE

STATION/POSITION TIME  TEMP    WIND        PRES    VSBY  WAVE
                       AIR SEA DIR/SP/G                  HT/PER
                 (UTC) (F)     (DEG/KT/KT) (MB)    (MI)  (FT/S)
SHEBOYGAN LKSHOR 0700   50 49  230/  3/  3 1022.0F
KEWAUNEE LKSHORE 0700   45     310/  3/  3 1019.9F
NORTHPORT PIER   0700   52     180/  3/  7 1020.7F
N MID LAKE BUOY  0700   57 58  190/ 12/ 14 1021.5F         0
CHAMBERS ISLAND  0700   49     140/  2/  4 1021.0F
MENOMINEE LKSHOR 0700   54     160/  9/ 14 1021.1F
$$



USA.gov is the U.S. government's official web portal to all federal, state and local government web resources and services.